Weather History for Cumberland, MD

Change the Weather History Date:

Wednesday, February 13, 2013

  Actual Average (KMRB) Record (KMRB)
Temperature  
Mean Temperature 34 °F 33 °F  
Max Temperature 41 °F 43 °F 68 °F (1949)
Min Temperature 28 °F 24 °F -5 °F (1983)
Degree Days  
Heating Degree Days 30 32  
Month to date heating degree days 424  
Since 1 July heating degree days 3507  
Cooling Degree Days 0 0  
Month to date cooling degree days 0  
Year to date cooling degree days 0  
Moisture  
Dew Point 31 °F    
Average Humidity 89    
Maximum Humidity 100    
Minimum Humidity 61    
Precipitation  
Precipitation 0.00 in 0.08 in 1.66 in (1972)
Month to date precipitation 1.07  
Year to date precipitation 3.51  
Sea Level Pressure  
Sea Level Pressure 29.82 in    
Wind  
Wind Speed 1 mph (SW)    
Max Wind Speed 8 mph    
Max Gust Speed -    
Visibility 9 miles    
Events      
T = Trace of Precipitation, MM = Missing Value Source: NWS Daily Summary

Daily Weather History Graph

Daily Weather History Graph

Search for Another Location

Airport:

Trip Planner

Search our weather history database for the weather conditions in past years. The results will help you decide how hot, cold, wet, or windy it might be!

Date:

Astronomy

Feb. 13, 2013 Rise Set
Actual Time 7:09 AM EST 5:49 PM EST
Civil Twilight 6:41 AM EST 6:17 PM EST
Nautical Twilight 6:10 AM EST 6:48 PM EST
Astronomical Twilight 5:38 AM EST 7:20 PM EST
Moon 8:38 AM EST (2/13) 9:49 PM EST (2/13)
Length of Visible Light 11h 35m
Length of Day
10h 39m
Waxing Crescent, 13% of the Moon is Illuminated
Feb 13
Waxing Crescent
Feb 17
First Quarter
Feb 25
Full
Mar 4
Last Quarter
Mar 11
New

Hourly Weather History & Observations

Time (EST) Temp. Windchill Dew Point Humidity Pressure Visibility Wind Dir Wind Speed Gust Speed Precip Events Conditions
12:07 AM 32.0 °F - 30.2 °F 93% 29.97 in 10.0 mi Calm Calm - N/A   Clear
12:27 AM 32.0 °F - 26.6 °F 80% 29.97 in 10.0 mi Calm Calm - N/A   Clear
12:47 AM 32.0 °F 28.7 °F 28.4 °F 87% 29.97 in 10.0 mi North 3.5 mph - N/A   Clear
1:07 AM 32.0 °F 28.7 °F 28.4 °F 87% 29.96 in 10.0 mi North 3.5 mph - N/A   Clear
1:27 AM 32.0 °F - 28.4 °F 87% 29.95 in 10.0 mi Calm Calm - N/A   Clear
1:47 AM 32.0 °F 26.4 °F 28.4 °F 87% 29.93 in 10.0 mi NNW 5.8 mph - N/A   Clear
2:07 AM 30.2 °F - 26.6 °F 86% 29.93 in 10.0 mi Calm Calm - N/A   Clear
2:27 AM 30.2 °F - 26.6 °F 86% 29.93 in 10.0 mi Calm Calm - N/A   Clear
2:47 AM 30.2 °F 26.7 °F 28.4 °F 93% 29.93 in 10.0 mi NNE 3.5 mph - N/A   Clear
3:07 AM 30.2 °F - 26.6 °F 86% 29.92 in 10.0 mi Calm Calm - N/A   Clear
3:27 AM 30.2 °F - 26.6 °F 86% 29.91 in 10.0 mi Calm Calm - N/A   Clear
3:46 AM 28.4 °F - 26.6 °F 93% 29.90 in 10.0 mi Calm Calm - N/A   Clear
4:07 AM 28.4 °F - 26.6 °F 93% 29.90 in 10.0 mi Calm Calm - N/A   Clear
4:26 AM 28.4 °F - 26.6 °F 93% 29.91 in 10.0 mi Calm Calm - N/A   Clear
4:47 AM 28.4 °F - 28.4 °F 100% 29.91 in 10.0 mi Calm Calm - N/A   Clear
5:07 AM 28.4 °F - 28.4 °F 100% 29.91 in 10.0 mi Calm Calm - N/A   Clear
5:27 AM 28.4 °F - 28.4 °F 100% 29.91 in 10.0 mi Calm Calm - N/A   Clear
5:47 AM 30.2 °F 26.7 °F 28.4 °F 93% 29.90 in 10.0 mi NNE 3.5 mph - N/A   Clear
6:07 AM 28.4 °F - 26.6 °F 93% 29.90 in 10.0 mi Calm Calm - N/A   Clear
6:27 AM 28.4 °F - 26.6 °F 93% 29.90 in 10.0 mi Calm Calm - N/A   Clear
6:47 AM 28.4 °F - 28.4 °F 100% 29.87 in 10.0 mi Calm Calm - N/A   Clear
7:07 AM 28.4 °F - 28.4 °F 100% 29.87 in 10.0 mi Calm Calm - N/A   Clear
7:27 AM 28.4 °F - 26.6 °F 93% 29.87 in 10.0 mi Calm Calm - N/A   Clear
7:47 AM 28.4 °F 24.6 °F 26.6 °F 93% 29.87 in 10.0 mi SSE 3.5 mph - N/A   Clear
8:08 AM 28.4 °F 24.6 °F 28.4 °F 100% 29.88 in 10.0 mi South 3.5 mph - N/A   Clear
8:28 AM 30.2 °F - 28.4 °F 93% 29.87 in 10.0 mi Calm Calm - N/A   Clear
8:48 AM 32.0 °F - 30.2 °F 93% 29.87 in 10.0 mi Calm Calm - N/A   Clear
9:08 AM 32.0 °F - 28.4 °F 87% 29.86 in 10.0 mi Calm Calm - N/A   Clear
9:28 AM 32.0 °F - 28.4 °F 87% 29.86 in 10.0 mi Calm Calm - N/A   Clear
9:48 AM 32.0 °F 28.7 °F 30.2 °F 93% 29.84 in 10.0 mi North 3.5 mph - N/A   Clear
10:08 AM 33.8 °F - 28.4 °F 81% 29.85 in 10.0 mi Calm Calm - N/A   Clear
10:28 AM 35.6 °F - 28.4 °F 75% 29.85 in 10.0 mi Calm Calm - N/A   Clear
10:48 AM 35.6 °F - 30.2 °F 81% 29.84 in 10.0 mi Calm Calm - N/A   Clear
11:08 AM 35.6 °F - 30.2 °F 81% 29.81 in 10.0 mi Calm Calm - N/A   Clear
11:28 AM 37.4 °F - 30.2 °F 75% 29.79 in 10.0 mi Calm Calm - N/A   Clear
11:48 AM 37.4 °F 33.8 °F 30.2 °F 75% 29.81 in 10.0 mi SW 4.6 mph - N/A   Clear
12:08 PM 39.2 °F 37.0 °F 30.2 °F 70% 29.81 in 10.0 mi South 3.5 mph - N/A   Clear
12:28 PM 41.0 °F - 30.2 °F 65% 29.79 in 10.0 mi Calm Calm - N/A   Clear
12:48 PM 41.0 °F - 28.4 °F 61% 29.77 in 10.0 mi Calm Calm - N/A   Clear
1:08 PM 41.0 °F - 28.4 °F 61% 29.76 in 10.0 mi Calm Calm - N/A   Clear
1:28 PM 41.0 °F - 30.2 °F 65% 29.75 in 10.0 mi Calm Calm - N/A   Clear
1:48 PM 41.0 °F 38.0 °F 30.2 °F 65% 29.75 in 10.0 mi South 4.6 mph - N/A   Clear
2:08 PM 41.0 °F 36.4 °F 32.0 °F 70% 29.73 in 10.0 mi South 6.9 mph - N/A   Scattered Clouds
2:28 PM 41.0 °F 38.0 °F 32.0 °F 70% 29.73 in 10.0 mi SSW 4.6 mph - N/A   Scattered Clouds
2:48 PM 41.0 °F 39.0 °F 32.0 °F 70% 29.72 in 10.0 mi ESE 3.5 mph - N/A   Scattered Clouds
3:08 PM 41.0 °F 39.0 °F 32.0 °F 70% 29.71 in 10.0 mi SE 3.5 mph - N/A   Mostly Cloudy
3:28 PM 39.2 °F 35.0 °F 33.8 °F 81% 29.71 in 10.0 mi SSE 5.8 mph - N/A   Overcast
3:48 PM 37.4 °F 31.4 °F 35.6 °F 93% 29.71 in 5.0 mi SE 8.1 mph - N/A   Overcast
4:09 PM 37.4 °F 34.9 °F 35.6 °F 93% 29.70 in 10.0 mi SSE 3.5 mph - N/A   Mostly Cloudy
4:29 PM 37.4 °F 34.9 °F 35.6 °F 93% 29.70 in 7.0 mi WSW 3.5 mph - N/A   Overcast
4:49 PM 37.4 °F - 35.6 °F 93% 29.70 in 7.0 mi Calm Calm - N/A   Overcast
5:09 PM 35.6 °F 32.8 °F 35.6 °F 100% 29.69 in 5.0 mi North 3.5 mph - N/A   Overcast
5:29 PM 35.6 °F 32.8 °F 35.6 °F 100% 29.71 in 10.0 mi NW 3.5 mph - N/A   Overcast
5:49 PM 35.6 °F - 35.6 °F 100% 29.72 in 7.0 mi Calm Calm - N/A   Overcast
6:09 PM 35.6 °F - 35.6 °F 100% 29.73 in 5.0 mi Calm Calm - N/A   Overcast
6:29 PM 35.6 °F - 35.6 °F 100% 29.74 in 5.0 mi Calm Calm - N/A   Overcast
6:49 PM 35.6 °F - 35.6 °F 100% 29.74 in 7.0 mi Calm Calm - N/A   Overcast
7:09 PM 35.6 °F 32.8 °F 35.6 °F 100% 29.75 in 7.0 mi North 3.5 mph - N/A   Overcast
7:29 PM 33.8 °F - 33.8 °F 100% 29.75 in 7.0 mi Calm Calm - N/A   Overcast
7:49 PM 33.8 °F - 33.8 °F 100% 29.77 in 7.0 mi Calm Calm - N/A   Overcast
8:09 PM 33.8 °F - 33.8 °F 100% 29.77 in 5.0 mi Calm Calm - N/A   Overcast
8:29 PM 33.8 °F - 33.8 °F 100% 29.78 in 5.0 mi Calm Calm - N/A   Overcast
8:49 PM 33.8 °F - 33.8 °F 100% 29.78 in 5.0 mi Calm Calm - N/A   Overcast
9:09 PM 33.8 °F - 33.8 °F 100% 29.78 in 5.0 mi Calm Calm - N/A   Overcast
9:29 PM 33.8 °F - 33.8 °F 100% 29.79 in 5.0 mi Calm Calm - N/A   Overcast
9:49 PM 33.8 °F - 33.8 °F 100% 29.79 in 4.0 mi Calm Calm - N/A   Overcast
10:09 PM 33.8 °F - 33.8 °F 100% 29.81 in 4.0 mi Calm Calm - N/A   Overcast
10:29 PM 33.8 °F - 33.8 °F 100% 29.81 in 5.0 mi Calm Calm - N/A   Overcast
10:49 PM 33.8 °F 29.6 °F 33.8 °F 100% 29.81 in 7.0 mi West 4.6 mph - N/A   Mostly Cloudy
11:09 PM 33.8 °F 29.6 °F 33.8 °F 100% 29.82 in 7.0 mi WNW 4.6 mph - N/A   Mostly Cloudy
11:29 PM 35.6 °F - 33.8 °F 93% 29.83 in 10.0 mi Calm Calm - N/A   Mostly Cloudy
11:49 PM 35.6 °F - 32.0 °F 87% 29.83 in 10.0 mi Calm Calm - N/A   Overcast